User: anonymous   Login
Location: Mt. Cuba Astronomical Observatory
(39.8100°N, 75.6300°W)
Time: 14:49:28
(UTC-05:00)
Language:

Cosmos 2058 - Orbit

View from above orbital plane
View from above orbital plane
View from above satellite
View from above satellite

Ground track
Ground track

The orbit data is extracted from the following two-line orbital elements,

1 20465U 90010A   16337.42759984  .00000533  00000-0  43493-4 0  9993
2 20465  82.4910  77.0208 0014483 233.8783 126.1099 14.97374752455899
Epoch (UTC): 02 December 2016 10:15:44
Eccentricity: 0.0014483
inclination: 82.4910°
perigee height: 565 km
apogee height: 585 km
right ascension of ascending node: 77.0208°
argument of perigee: 233.8783°
revolutions per day: 14.97374752
mean anomaly at epoch: 126.1099°
orbit number at epoch: 45589

The dashed part of the orbit path shows where the satellite is in the earth's shadow,  

DLR